GW6323 Weather Reports


time (UTC)temp
C
wind
direction
speed
KPH
gust
KPH
rain 1hr
cm
rain 24hr
cm
rain mn
cm
humidity
%
barometer
mb
20260510150056 26 176 1.6 4.8 0.00 1.02 0.00 73 1017.1
20260510145533 26 251 1.6 4.8 0.00 1.04 0.00 75 1017.0
20260510145030 26 0 0.0 4.8 0.00 1.04 0.00 76 1017.0
20260510144609 26 268 0.0 4.8 0.00 1.04 0.00 77 1017.0
20260510144030 26 0 1.6 4.8 0.00 1.04 0.00 77 1017.0
20260510143535 26 254 0.0 3.2 0.00 1.04 0.00 79 1017.0
20260510143042 25 0 0.0 3.2 0.00 1.04 0.00 81 1017.0
20260510142533 25 0 0.0 3.2 0.00 1.04 0.00 81 1017.1
20260510142033 25 260 0.0 3.2 0.00 1.04 0.00 82 1017.0
20260510141543 25 0 0.0 4.8 0.00 1.04 0.00 83 1017.1
20260510141033 25 248 0.0 6.4 0.00 1.04 0.00 83 1017.0
20260510140533 24 0 0.0 6.4 0.00 1.04 0.00 85 1016.9
20260510140043 24 254 0.0 4.8 0.00 1.04 0.00 86 1016.8
20260510135533 24 254 1.6 4.8 0.00 1.04 0.00 86 1016.7
20260510135033 23 0 0.0 4.8 0.00 1.04 0.00 86 1016.7
20260510134549 23 261 0.0 4.8 0.00 1.04 0.00 86 1016.7
20260510134030 23 277 0.0 4.8 0.00 1.04 0.00 87 1016.8
20260510133530 23 0 0.0 4.8 0.00 1.04 0.00 87 1016.7
20260510133048 23 0 0.0 4.8 0.00 1.04 0.00 87 1016.6
20260510132534 23 261 0.0 4.8 0.00 1.04 0.00 87 1016.6
20260510132031 23 261 0.0 4.8 0.00 1.04 0.00 87 1016.5
20260510131544 23 0 0.0 4.8 0.00 1.04 0.00 87 1016.4
20260510131034 23 261 0.0 3.2 0.00 1.04 0.00 87 1016.3
20260510130536 23 0 0.0 4.8 0.00 1.04 0.00 87 1016.3
20260510130045 23 261 0.0 4.8 0.00 1.04 0.00 87 1016.2
20260510125533 23 271 0.0 1.6 0.00 1.04 0.00 87 1016.1
20260510125033 23 0 0.0 3.2 0.00 1.04 0.00 87 1016.1
20260510124541 22 0 0.0 3.2 0.00 1.04 0.00 87 1016.0
20260510124033 22 0 0.0 0.0 0.00 1.04 0.00 87 1015.9
20260510123533 22 0 0.0 0.0 0.00 1.04 0.00 87 1015.8
20260510123044 22 0 0.0 1.6 0.00 1.04 0.00 87 1015.9
20260510122532 22 0 0.0 1.6 0.00 1.04 0.00 87 1015.8
20260510122034 22 0 0.0 1.6 0.00 1.04 0.00 87 1015.9
20260510121541 22 0 0.0 0.0 0.00 1.04 0.00 87 1015.8
20260510121033 22 0 0.0 0.0 0.00 1.04 0.00 87 1015.8
20260510120536 22 0 0.0 0.0 0.00 1.04 0.00 87 1015.6
20260510120036 21 0 0.0 0.0 0.00 1.04 0.00 87 1015.6
20260510115532 21 0 0.0 0.0 0.00 1.04 0.00 87 1015.5
20260510115034 21 0 0.0 0.0 0.00 1.04 0.00 87 1015.5
20260510114600 21 0 0.0 0.0 0.00 1.04 0.00 86 1015.4
20260510114032 21 0 0.0 0.0 0.00 1.04 0.00 86 1015.4
20260510113532 21 0 0.0 0.0 0.00 1.04 0.00 87 1015.3
20260510113053 21 0 0.0 0.0 0.00 1.04 0.00 87 1015.2
20260510112533 21 0 0.0 0.0 0.00 1.04 0.00 87 1015.2
20260510112033 21 0 0.0 0.0 0.00 1.04 0.00 87 1015.1
20260510111545 21 0 0.0 0.0 0.00 1.04 0.00 87 1015.1
20260510111032 21 0 0.0 0.0 0.00 1.04 0.00 86 1015.1
20260510110532 21 0 0.0 0.0 0.00 1.04 0.00 86 1015.0
20260510110040 21 0 0.0 0.0 0.00 1.04 0.00 86 1014.9
20260510105536 21 0 0.0 0.0 0.00 1.04 0.00 86 1015.0
20260510105032 21 0 0.0 0.0 0.00 1.04 0.00 86 1014.9
20260510104553 21 0 0.0 0.0 0.00 1.04 0.00 86 1014.7
20260510104032 21 0 0.0 0.0 0.00 1.04 0.00 86 1014.8
20260510103534 21 0 0.0 0.0 0.00 1.04 0.00 86 1014.8
20260510103046 21 0 0.0 0.0 0.00 1.04 0.00 86 1014.7
20260510102532 21 0 0.0 0.0 0.00 1.04 0.00 86 1014.6
20260510102032 21 0 0.0 0.0 0.00 1.04 0.00 86 1014.5
20260510101543 21 0 0.0 0.0 0.00 1.04 0.00 86 1014.4
20260510101036 21 0 0.0 0.0 0.00 1.04 0.00 86 1014.5
20260510100532 21 0 0.0 0.0 0.00 1.04 0.00 86 1014.4
20260510100057 21 0 0.0 0.0 0.00 1.04 0.00 86 1014.3
20260510095534 21 0 0.0 0.0 0.00 1.04 0.00 86 1014.3
20260510095032 21 0 0.0 0.0 0.00 1.04 0.00 86 1014.3
20260510094550 21 0 0.0 0.0 0.00 1.04 0.00 86 1014.3
20260510094034 21 0 0.0 0.0 0.00 1.04 0.00 86 1014.3
20260510093533 21 0 0.0 0.0 0.00 1.04 0.00 86 1014.2
20260510093043 21 0 0.0 0.0 0.00 1.04 0.00 86 1014.1
20260510092533 21 0 0.0 0.0 0.00 1.04 0.00 86 1014.1
20260510092032 21 0 0.0 0.0 0.00 1.04 0.00 86 1013.9
20260510091544 21 0 0.0 0.0 0.00 1.04 0.00 86 1013.8
20260510091032 21 0 0.0 0.0 0.00 1.04 0.00 86 1013.8
20260510090536 21 0 0.0 0.0 0.00 1.04 0.00 86 1013.8
20260510090043 21 0 0.0 0.0 0.00 1.04 0.00 86 1013.9
20260510085533 21 0 0.0 0.0 0.00 1.04 0.00 86 1013.8
20260510085032 21 0 0.0 0.0 0.00 1.04 0.00 86 1013.8
20260510084542 21 0 0.0 0.0 0.00 1.04 0.00 86 1013.8
20260510084032 21 0 0.0 0.0 0.00 1.04 0.00 86 1013.8
20260510083532 21 0 0.0 0.0 0.00 1.04 0.00 86 1013.6
20260510083047 21 0 0.0 0.0 0.00 1.04 0.00 86 1013.6
20260510082533 21 0 0.0 0.0 0.00 1.04 0.00 86 1013.6
20260510082032 21 0 0.0 0.0 0.00 1.04 0.00 86 1013.6
20260510081543 21 0 0.0 0.0 0.00 1.04 0.00 86 1013.6
20260510081034 21 0 0.0 0.0 0.00 1.04 0.00 86 1013.6
20260510080534 21 0 0.0 0.0 0.00 1.04 0.00 86 1013.6
20260510080041 21 0 0.0 0.0 0.00 1.04 0.00 86 1013.5
20260510075535 21 0 0.0 0.0 0.00 1.04 0.00 86 1013.4
20260510075031 21 0 0.0 0.0 0.00 1.04 0.00 86 1013.2
20260510074546 21 0 0.0 0.0 0.00 1.04 0.00 86 1013.3
20260510074034 21 0 0.0 0.0 0.00 1.04 0.00 86 1013.2
20260510073530 21 0 0.0 0.0 0.00 1.04 0.00 86 1013.2
20260510073046 21 0 0.0 0.0 0.00 1.04 0.00 86 1013.3
20260510072532 22 0 0.0 0.0 0.00 1.04 0.00 86 1013.3
20260510072032 22 0 0.0 0.0 0.00 1.04 0.00 86 1013.3
20260510071548 22 0 0.0 0.0 0.00 1.04 0.00 86 1013.3
20260510071033 22 0 0.0 0.0 0.00 1.04 0.00 86 1013.4
20260510070531 22 0 0.0 0.0 0.00 1.04 0.00 86 1013.3
20260510070103 22 0 0.0 0.0 0.00 1.04 0.00 86 1013.4
20260510065531 22 0 0.0 0.0 0.00 1.04 0.00 86 1013.5
20260510065032 22 0 0.0 0.0 0.00 1.04 0.00 86 1013.4
20260510064549 22 0 0.0 0.0 0.00 1.04 0.00 86 1013.5
20260510064036 22 0 0.0 0.0 0.00 1.04 0.00 86 1013.8
20260510063534 22 0 0.0 0.0 0.00 1.04 0.00 86 1013.8
20260510063045 22 0 0.0 0.0 0.00 1.04 0.00 86 1013.8
20260510062531 21 0 0.0 0.0 0.00 1.04 0.00 86 1013.9
20260510062031 21 0 0.0 0.0 0.00 1.04 0.00 86 1013.9
20260510061543 21 0 0.0 0.0 0.00 1.04 0.00 86 1014.1
20260510061031 21 0 0.0 0.0 0.00 1.04 0.00 86 1014.0
20260510060534 21 0 0.0 0.0 0.00 1.04 0.00 86 1014.2
20260510060044 21 0 0.0 0.0 0.00 1.04 0.00 86 1014.2
20260510055531 21 0 0.0 0.0 0.00 1.04 0.00 86 1014.3
20260510055035 21 0 0.0 0.0 0.00 1.04 0.00 86 1014.4
20260510054551 21 0 0.0 0.0 0.00 1.04 0.00 86 1014.5
20260510054030 21 0 0.0 0.0 0.00 1.04 0.00 86 1014.5
20260510053534 21 0 0.0 0.0 0.00 1.04 0.00 86 1014.6
20260510053047 21 0 0.0 0.0 0.00 1.04 0.00 86 1014.7
20260510052533 22 0 0.0 0.0 0.00 1.04 0.00 86 1014.7
20260510052032 22 0 0.0 0.0 0.00 1.04 0.00 86 1014.8
20260510051543 22 0 0.0 0.0 0.00 1.04 0.00 86 1014.9
20260510051035 21 0 0.0 0.0 0.00 1.04 0.00 86 1014.9
20260510050531 21 0 0.0 0.0 0.00 1.04 0.00 86 1015.0
20260510050041 21 0 0.0 0.0 0.00 1.04 0.00 86 1015.0
20260510045536 21 0 0.0 0.0 0.00 1.04 0.00 86 1015.1
20260510045031 21 0 0.0 0.0 0.00 1.04 0.00 86 1015.1
20260510044544 21 0 0.0 0.0 0.00 1.04 0.00 86 1015.2
20260510044031 21 0 0.0 0.0 0.00 1.04 0.00 86 1015.1
20260510043531 21 0 0.0 0.0 0.00 1.04 0.00 86 1015.0
20260510043043 21 0 0.0 0.0 0.00 1.04 0.00 86 1015.1
20260510042534 21 0 0.0 0.0 0.00 1.04 0.00 86 1015.2
20260510042036 21 0 0.0 0.0 0.00 1.04 0.00 86 1015.2
20260510041549 21 0 0.0 0.0 0.00 1.04 0.00 86 1015.2
20260510041035 21 0 0.0 0.0 0.00 1.04 0.00 86 1015.1
20260510040535 21 0 0.0 0.0 0.00 1.04 0.00 86 1015.1
20260510040042 21 0 0.0 0.0 0.00 1.04 0.00 86 1015.1
20260510035531 21 0 0.0 0.0 0.00 1.04 1.04 86 1015.2
20260510035032 22 0 0.0 0.0 0.00 1.04 1.04 86 1015.2
20260510034540 22 0 0.0 0.0 0.00 1.04 1.04 86 1015.1
20260510034032 22 0 0.0 0.0 0.00 1.04 1.04 86 1015.2
20260510033530 22 0 0.0 0.0 0.00 1.04 1.04 86 1015.3
20260510033054 22 0 0.0 0.0 0.00 1.04 1.04 86 1015.2
20260510032530 22 0 0.0 0.0 0.00 1.04 1.04 86 1015.2
20260510032033 22 0 0.0 0.0 0.00 1.04 1.04 86 1015.2
20260510031543 22 0 0.0 0.0 0.00 1.04 1.04 86 1015.2
20260510031031 22 0 0.0 0.0 0.00 1.04 1.04 86 1015.2
20260510030531 22 0 0.0 0.0 0.00 1.04 1.04 86 1015.2
20260510030043 22 0 0.0 0.0 0.00 1.04 1.04 86 1015.0
20260510025532 22 0 0.0 0.0 0.00 1.04 1.04 86 1015.0
20260510025030 22 0 0.0 1.6 0.00 1.04 1.04 86 1015.0
20260510024543 22 0 0.0 1.6 0.00 1.04 1.04 86 1015.0
20260510024034 22 0 0.0 1.6 0.00 1.04 1.04 86 1014.8
20260510023534 22 0 0.0 0.0 0.00 1.04 1.04 86 1014.5
20260510023044 22 0 0.0 3.2 0.00 1.04 1.04 85 1014.6
20260510022531 22 0 0.0 3.2 0.00 1.04 1.04 85 1015.0
20260510022033 22 0 0.0 3.2 0.00 1.04 1.04 85 1015.0
20260510021543 22 0 0.0 0.0 0.00 1.04 1.04 85 1014.5
20260510021030 22 0 0.0 0.0 0.00 1.04 1.04 85 1014.4
20260510020530 22 0 0.0 0.0 0.00 1.04 1.04 85 1014.6
20260510020043 22 0 0.0 0.0 0.00 1.04 1.04 85 1014.6
20260510015530 22 0 0.0 0.0 0.00 1.04 1.04 85 1014.3
20260510015034 22 0 0.0 0.0 0.00 1.04 1.04 85 1014.3
20260510014541 22 0 0.0 0.0 0.00 1.04 1.04 85 1014.4
20260510014030 22 0 0.0 0.0 0.00 1.04 1.04 85 1014.3
20260510013530 22 0 0.0 0.0 0.00 1.04 1.04 85 1014.2
20260510013041 22 0 0.0 0.0 0.00 1.04 1.04 85 1014.2
20260510012530 22 0 0.0 0.0 0.00 1.04 1.04 85 1014.1
20260510012033 22 0 0.0 0.0 0.00 1.04 1.04 85 1014.0
20260510011543 22 0 0.0 0.0 0.00 1.04 1.04 85 1013.8
20260510011031 22 0 0.0 0.0 0.00 1.04 1.04 85 1014.0
20260510010532 22 0 0.0 0.0 0.00 1.04 1.04 85 1013.8
20260510010054 22 0 0.0 0.0 0.00 1.04 1.04 85 1013.6
20260510005531 22 0 0.0 0.0 0.00 1.07 1.04 85 1013.7
20260510005037 22 0 0.0 0.0 0.00 1.07 1.04 85 1014.1
20260510004544 22 0 0.0 0.0 0.00 1.07 1.04 85 1014.0
20260510004033 22 0 0.0 0.0 0.00 1.07 1.04 85 1014.2
20260510003531 22 0 0.0 0.0 0.00 1.07 1.04 85 1014.2
20260510003054 22 0 0.0 0.0 0.00 1.07 1.04 85 1014.2
20260510002533 22 0 0.0 0.0 0.00 1.07 1.04 85 1014.0
20260510002031 22 0 0.0 0.0 0.00 1.07 1.04 85 1013.9
20260510001546 22 0 0.0 0.0 0.00 1.07 1.04 85 1014.0
20260510001034 22 0 0.0 0.0 0.00 1.07 1.04 85 1013.9
20260510000530 22 0 0.0 0.0 0.00 1.07 1.04 84 1013.8
20260510000051 22 0 0.0 0.0 0.00 1.07 1.04 84 1013.7
20260509235533 22 0 0.0 0.0 0.00 1.19 1.04 84 1013.7
20260509235032 22 0 0.0 1.6 0.00 1.19 1.04 84 1013.7
20260509234558 22 0 0.0 3.2 0.00 1.19 1.04 84 1013.7
20260509234033 22 0 0.0 3.2 0.00 1.19 1.04 84 1013.7
20260509233533 22 0 0.0 3.2 0.00 1.19 1.04 84 1013.7
20260509233039 23 0 0.0 3.2 0.00 1.19 1.04 85 1013.7
20260509232532 23 0 0.0 3.2 0.00 1.19 1.04 85 1013.6
20260509232031 23 0 0.0 3.2 0.00 1.19 1.04 85 1013.6
20260509231545 23 0 0.0 0.0 0.00 1.19 1.04 85 1013.4
20260509231033 23 0 0.0 0.0 0.00 1.19 1.04 85 1013.4
20260509230530 23 0 0.0 0.0 0.00 1.19 1.04 85 1013.5
20260509230044 23 0 0.0 0.0 0.00 1.19 1.04 85 1013.3
20260509225530 23 0 0.0 0.0 0.00 1.22 1.04 84 1013.3
20260509225030 23 0 0.0 0.0 0.00 1.22 1.04 85 1013.3
20260509224541 23 0 0.0 0.0 0.00 1.22 1.04 85 1013.3
20260509224031 23 0 0.0 0.0 0.00 1.22 1.04 85 1013.4
20260509223532 23 0 0.0 0.0 0.00 1.22 1.04 85 1013.4
20260509223052 23 0 0.0 0.0 0.00 1.22 1.04 85 1013.6
20260509222531 23 0 0.0 0.0 0.00 1.22 1.04 85 1013.6
20260509222035 23 0 0.0 0.0 0.00 1.22 1.04 85 1013.6
20260509221536 23 0 0.0 0.0 0.00 1.22 1.04 85 1013.5
20260509221131 23 0 0.0 0.0 0.00 1.22 1.04 84 1013.3
20260509220535 23 0 0.0 0.0 0.00 1.22 1.04 84 1013.4
20260509220056 23 0 0.0 1.6 0.00 1.22 1.04 84 1013.4
20260509215532 23 0 0.0 1.6 0.08 1.24 1.04 84 1013.3
20260509215034 23 0 0.0 1.6 0.20 1.24 1.04 84 1013.3
20260509214543 23 0 0.0 1.6 0.48 1.24 1.04 84 1013.2
20260509214033 23 0 0.0 3.2 0.58 1.24 1.04 84 1013.1
20260509213532 23 0 0.0 3.2 0.64 1.24 1.04 84 1013.1
20260509213041 23 0 0.0 0.0 0.69 1.24 1.04 84 1013.4
20260509212534 23 0 0.0 0.0 0.74 1.24 1.04 83 1013.3
20260509212033 23 0 0.0 1.6 0.76 1.24 1.04 83 1013.4
20260509211546 23 0 0.0 1.6 0.76 1.24 1.04 84 1013.4
20260509211033 23 0 0.0 1.6 0.79 1.24 1.04 83 1013.4
20260509210533 23 0 0.0 1.6 0.81 1.24 1.04 83 1013.5
20260509210046 24 0 0.0 1.6 0.86 1.24 1.04 83 1013.4
20260509205531 24 0 0.0 1.6 0.84 1.14 0.94 83 1013.4
20260509205030 24 0 0.0 1.6 0.76 1.02 0.81 83 1013.4
20260509204558 24 0 0.0 1.6 0.53 0.76 0.56 82 1013.6
20260509204031 24 0 0.0 0.0 0.41 0.64 0.43 82 1013.3
20260509203535 25 0 0.0 0.0 0.38 0.61 0.41 81 1013.1
20260509203039 25 0 0.0 0.0 0.33 0.56 0.36 81 1013.0
20260509202534 25 0 0.0 0.0 0.28 0.51 0.30 80 1013.2
20260509202029 25 0 0.0 0.0 0.25 0.48 0.28 79 1013.1
20260509201548 25 0 0.0 0.0 0.25 0.48 0.28 78 1013.2
20260509201037 25 0 0.0 0.0 0.23 0.46 0.25 78 1013.4
20260509200534 25 0 0.0 0.0 0.18 0.41 0.20 77 1013.4
20260509200045 26 0 0.0 0.0 0.15 0.38 0.18 77 1013.6
20260509195534 26 0 0.0 0.0 0.08 0.30 0.10 75 1013.5
20260509195030 26 0 0.0 0.0 0.03 0.25 0.05 75 1013.4
20260509194545 26 0 0.0 0.0 0.00 0.23 0.03 74 1013.2
20260509194031 26 0 0.0 0.0 0.00 0.23 0.03 73 1013.2
20260509193532 26 0 0.0 0.0 0.00 0.23 0.03 74 1013.0
20260509193045 26 0 0.0 0.0 0.00 0.23 0.03 74 1012.9
20260509192534 26 0 0.0 0.0 0.00 0.23 0.03 73 1013.0
20260509192033 26 0 0.0 0.0 0.00 0.23 0.03 73 1013.0
20260509191554 26 0 0.0 0.0 0.00 0.23 0.03 73 1013.0
20260509191035 26 0 0.0 1.6 0.00 0.23 0.03 68 1012.9
20260509190532 26 0 0.0 3.2 0.00 0.23 0.03 70 1012.9
20260509190039 26 0 0.0 3.2 0.00 0.23 0.03 69 1013.0
20260509185534 26 0 0.0 3.2 0.00 0.23 0.03 68 1012.9
20260509185037 26 0 0.0 1.6 0.00 0.23 0.03 68 1013.0
20260509184538 26 0 0.0 1.6 0.00 0.23 0.03 68 1013.1
20260509184031 26 0 0.0 3.2 0.00 0.23 0.03 68 1013.2
20260509183534 26 0 0.0 3.2 0.00 0.23 0.03 69 1013.1
20260509183043 26 0 0.0 3.2 0.00 0.23 0.03 69 1013.3
20260509182532 27 0 0.0 0.0 0.00 0.23 0.03 70 1013.4
20260509182031 27 0 0.0 3.2 0.00 0.23 0.03 69 1013.4
20260509181543 27 0 0.0 3.2 0.00 0.23 0.03 69 1013.4
20260509181035 27 0 0.0 0.0 0.00 0.23 0.03 69 1013.5
20260509180537 27 0 0.0 4.8 0.00 0.23 0.03 69 1013.4
20260509180043 27 0 0.0 4.8 0.00 0.23 0.03 69 1013.6
20260509175531 27 0 0.0 3.2 0.00 0.23 0.03 70 1013.7
20260509175037 27 0 0.0 1.6 0.00 0.23 0.03 70 1013.7
20260509174552 27 0 0.0 0.0 0.00 0.23 0.03 70 1013.8
20260509174032 27 0 0.0 4.8 0.00 0.23 0.03 68 1013.7
20260509173533 27 0 0.0 4.8 0.00 0.23 0.03 69 1013.6
20260509173038 27 0 0.0 4.8 0.00 0.23 0.03 69 1013.7
20260509172533 27 0 0.0 4.8 0.00 0.23 0.03 68 1013.7
20260509172034 27 0 0.0 4.8 0.00 0.23 0.03 70 1013.8
20260509171549 26 259 0.0 4.8 0.00 0.23 0.03 70 1013.8
20260509171033 26 244 0.0 1.6 0.00 0.23 0.03 70 1013.9
20260509170532 26 268 0.0 1.6 0.00 0.23 0.03 70 1013.8
20260509170045 26 0 0.0 1.6 0.00 0.23 0.03 71 1013.9
20260509165533 26 0 0.0 1.6 0.00 0.23 0.03 71 1013.8
20260509165033 26 0 0.0 1.6 0.00 0.23 0.03 71 1013.8
20260509164545 26 0 0.0 0.0 0.00 0.23 0.03 72 1013.9
20260509164031 26 0 0.0 0.0 0.00 0.23 0.03 71 1013.8
20260509163531 26 0 0.0 0.0 0.00 0.23 0.03 71 1013.8
20260509163040 26 0 0.0 0.0 0.00 0.23 0.03 72 1013.8
20260509162530 26 0 0.0 1.6 0.00 0.23 0.03 72 1013.8
20260509162039 26 0 0.0 1.6 0.00 0.23 0.03 72 1014.0
20260509161543 26 0 0.0 4.8 0.00 0.23 0.03 72 1014.1
20260509161033 26 0 0.0 4.8 0.00 0.23 0.03 72 1014.0
20260509160534 26 247 0.0 3.2 0.00 0.23 0.03 72 1014.2
20260509160044 26 0 0.0 4.8 0.00 0.23 0.03 74 1014.2
20260509155533 26 0 0.0 4.8 0.00 0.23 0.03 73 1014.2
20260509155035 26 0 0.0 4.8 0.00 0.23 0.03 74 1014.2
20260509154552 26 0 0.0 1.6 0.00 0.23 0.03 75 1014.2
20260509154032 26 0 0.0 1.6 0.00 0.23 0.03 75 1014.1
20260509153533 26 0 0.0 0.0 0.00 0.23 0.03 77 1014.1
20260509153041 25 0 0.0 1.6 0.00 0.23 0.03 77 1014.1
20260509152533 25 0 0.0 1.6 0.03 0.23 0.03 77 1013.9
20260509152032 25 0 0.0 1.6 0.03 0.23 0.03 76 1014.0
20260509151544 25 0 0.0 3.2 0.03 0.23 0.03 78 1014.1
20260509151031 25 0 0.0 3.2 0.03 0.23 0.03 78 1014.1
20260509150534 25 259 0.0 3.2 0.03 0.23 0.03 79 1014.0